{"data":{"norad_id":38093,"epoch":"2026-09-19T23:20:14.692128Z","epoch_age_seconds":63935,"freshness":"FRESH","line1":"1 38093U 12009A   26262.97239227 -.00000129  00000+0  00000+0 0  9995","line2":"2 38093   5.6677  46.9752 0052243   3.7642 198.2327  1.00271158 53394","mean_motion":1.00271158,"eccentricity":0.0052243,"inclination_deg":5.6677,"raan_deg":46.9752,"arg_perigee_deg":3.7642,"mean_anomaly_deg":198.2327,"bstar":0,"rev_number":5339,"period_min":1436.105884007,"perigee_km":35566.488605498,"apogee_km":36007.052860437,"semimajor_km":42164.907732967,"source":"CELESTRAK","updated_at":"2026-09-20T09:00:35.173249Z"}}